| time (UTC) | temp F | wind direction | speed MPH | gust MPH | rain 1hr in | rain 24hr in | rain mn in | humidity % | barometer mb |
| 20260510121839 | 64 | 160 | 1.0 | 1.0 | 0.00 | 0.18 | 0.18 | 99 | 1012.5 |
| 20260510121336 | 64 | 93 | 0.0 | 0.0 | 0.00 | 0.18 | 0.18 | 99 | 1012.5 |
| 20260510120833 | 63 | 78 | 0.0 | 0.0 | 0.00 | 0.18 | 0.18 | 99 | 1012.4 |
| 20260510120331 | 63 | 296 | 0.0 | 0.0 | 0.00 | 0.18 | 0.18 | 99 | 1012.2 |
| 20260510115826 | 63 | 75 | 0.0 | 0.0 | 0.00 | 0.18 | 0.18 | 99 | 1012.4 |
| 20260510115323 | 63 | 309 | 0.0 | 0.0 | 0.00 | 0.18 | 0.18 | 99 | 1012.3 |
| 20260510114819 | 63 | 298 | 0.0 | 0.0 | 0.00 | 0.18 | 0.18 | 99 | 1012.3 |
| 20260510114317 | 64 | 120 | 1.0 | 1.0 | 0.00 | 0.18 | 0.18 | 99 | 1012.5 |
| 20260510113811 | 64 | 343 | 0.0 | 1.0 | 0.00 | 0.18 | 0.18 | 99 | 1012.2 |
| 20260510113308 | 64 | 21 | 0.0 | 0.0 | 0.00 | 0.18 | 0.18 | 99 | 1012.0 |
| 20260510112805 | 64 | 302 | 0.0 | 0.0 | 0.00 | 0.18 | 0.18 | 99 | 1012.0 |
| 20260510112305 | 64 | 306 | 0.0 | 0.0 | 0.00 | 0.18 | 0.18 | 99 | 1012.0 |
| 20260510111758 | 63 | 54 | 0.0 | 0.0 | 0.00 | 0.18 | 0.18 | 99 | 1012.2 |
| 20260510111255 | 63 | 301 | 0.0 | 0.0 | 0.00 | 0.18 | 0.18 | 98 | 1012.1 |
| 20260510110754 | 63 | 279 | 0.0 | 0.0 | 0.00 | 0.18 | 0.18 | 99 | 1012.0 |
| 20260510110252 | 63 | 85 | 0.0 | 1.0 | 0.00 | 0.18 | 0.18 | 98 | 1011.9 |
| 20260510105752 | 63 | 329 | 0.0 | 0.0 | 0.00 | 0.18 | 0.18 | 98 | 1011.8 |
| 20260510105247 | 63 | 333 | 0.0 | 0.0 | 0.00 | 0.18 | 0.18 | 98 | 1011.6 |
| 20260510104744 | 63 | 9 | 0.0 | 0.0 | 0.00 | 0.18 | 0.18 | 98 | 1011.9 |
| 20260510104242 | 63 | 83 | 0.0 | 0.0 | 0.00 | 0.18 | 0.18 | 98 | 1012.0 |
| 20260510103737 | 63 | 105 | 0.0 | 0.0 | 0.00 | 0.18 | 0.18 | 98 | 1011.6 |
| 20260510103235 | 63 | 128 | 0.0 | 0.0 | 0.00 | 0.18 | 0.18 | 98 | 1011.9 |
| 20260510102734 | 63 | 291 | 0.0 | 0.0 | 0.00 | 0.18 | 0.18 | 98 | 1011.6 |
| 20260510102230 | 63 | 133 | 1.0 | 2.0 | 0.00 | 0.18 | 0.18 | 98 | 1011.4 |
| 20260510101728 | 63 | 112 | 0.0 | 1.0 | 0.00 | 0.18 | 0.18 | 97 | 1011.2 |
| 20260510101226 | 63 | 311 | 2.0 | 3.0 | 0.00 | 0.18 | 0.18 | 97 | 1011.5 |
| 20260510100722 | 63 | 14 | 2.0 | 3.0 | 0.00 | 0.18 | 0.18 | 97 | 1011.8 |
| 20260510100220 | 63 | 94 | 2.0 | 2.0 | 0.00 | 0.18 | 0.18 | 97 | 1012.1 |
| 20260510095715 | 64 | 45 | 0.0 | 0.0 | 0.00 | 0.18 | 0.18 | 97 | 1011.8 |
| 20260510095211 | 64 | 82 | 1.0 | 1.0 | 0.00 | 0.18 | 0.18 | 97 | 1011.6 |
| 20260510094709 | 64 | 118 | 0.0 | 2.0 | 0.00 | 0.18 | 0.18 | 97 | 1011.9 |
| 20260510094206 | 64 | 51 | 1.0 | 3.0 | 0.07 | 0.18 | 0.18 | 96 | 1012.2 |
| 20260510093701 | 64 | 147 | 2.0 | 3.0 | 0.12 | 0.18 | 0.18 | 96 | 1011.8 |
| 20260510093159 | 64 | 59 | 3.0 | 3.0 | 0.26 | 0.18 | 0.18 | 95 | 1011.2 |
| 20260510092655 | 64 | 48 | 2.0 | 2.0 | 0.66 | 0.16 | 0.16 | 95 | 1011.3 |
| 20260510092151 | 65 | 268 | 2.0 | 2.0 | 0.83 | 0.14 | 0.14 | 93 | 1011.2 |
| 20260510091647 | 66 | 130 | 7.0 | 9.0 | 0.35 | 0.06 | 0.06 | 90 | 1012.2 |
| 20260510091143 | 68 | 94 | 7.0 | 8.0 | 0.00 | 0.00 | 0.00 | 83 | 1012.6 |
| 20260510090640 | 69 | 57 | 3.0 | 7.0 | 0.00 | 0.00 | 0.00 | 81 | 1012.4 |
| 20260510090136 | 70 | 61 | 5.0 | 7.0 | 0.00 | 0.00 | 0.00 | 79 | 1011.6 |
| 20260510085631 | 70 | 52 | 7.0 | 10.0 | 0.00 | 0.00 | 0.00 | 79 | 1011.8 |
| 20260510085127 | 71 | 52 | 4.0 | 6.0 | 0.00 | 0.00 | 0.00 | 82 | 1011.5 |
| 20260510084624 | 72 | 12 | 3.0 | 8.0 | 0.00 | 0.00 | 0.00 | 90 | 1011.1 |
| 20260510084121 | 72 | 31 | 1.0 | 1.0 | 0.00 | 0.00 | 0.00 | 91 | 1010.9 |
| 20260510083617 | 74 | 312 | 3.0 | 5.0 | 0.00 | 0.00 | 0.00 | 93 | 1010.6 |
| 20260510083113 | 74 | 304 | 1.0 | 2.0 | 0.00 | 0.00 | 0.00 | 93 | 1010.3 |
| 20260510082610 | 74 | 8 | 3.0 | 3.0 | 0.00 | 0.00 | 0.00 | 93 | 1010.2 |
| 20260510082106 | 74 | 98 | 1.0 | 1.0 | 0.00 | 0.00 | 0.00 | 93 | 1010.0 |
| 20260510081600 | 74 | 297 | 0.0 | 0.0 | 0.00 | 0.00 | 0.00 | 93 | 1010.3 |
| 20260510081056 | 74 | 110 | 2.0 | 2.0 | 0.00 | 0.00 | 0.00 | 93 | 1010.5 |
| 20260510080556 | 74 | 27 | 3.0 | 3.0 | 0.00 | 0.00 | 0.00 | 93 | 1010.5 |
| 20260510080053 | 74 | 6 | 4.0 | 5.0 | 0.00 | 0.00 | 0.00 | 93 | 1010.7 |
| 20260510075550 | 74 | 53 | 3.0 | 3.0 | 0.00 | 0.00 | 0.00 | 93 | 1010.3 |
| 20260510075047 | 74 | 45 | 0.0 | 0.0 | 0.00 | 0.00 | 0.00 | 92 | 1009.7 |
| 20260510074544 | 74 | 355 | 1.0 | 2.0 | 0.00 | 0.00 | 0.00 | 92 | 1009.5 |
| 20260510074039 | 74 | 340 | 0.0 | 0.0 | 0.00 | 0.00 | 0.00 | 92 | 1009.2 |
| 20260510073536 | 74 | 333 | 0.0 | 0.0 | 0.00 | 0.00 | 0.00 | 91 | 1009.3 |
| 20260510073033 | 74 | 336 | 0.0 | 0.0 | 0.00 | 0.00 | 0.00 | 91 | 1009.2 |
| 20260510072530 | 74 | 351 | 0.0 | 0.0 | 0.00 | 0.00 | 0.00 | 90 | 1009.0 |
| 20260510072025 | 74 | 317 | 0.0 | 0.0 | 0.00 | 0.00 | 0.00 | 90 | 1008.8 |
| 20260510071521 | 74 | 329 | 0.0 | 0.0 | 0.00 | 0.00 | 0.00 | 90 | 1008.5 |
| 20260510071020 | 75 | 82 | 1.0 | 1.0 | 0.00 | 0.00 | 0.00 | 89 | 1008.6 |
| 20260510070516 | 75 | 95 | 0.0 | 1.0 | 0.00 | 0.00 | 0.00 | 89 | 1008.3 |
| 20260510070013 | 75 | 181 | 1.0 | 1.0 | 0.00 | 0.00 | 0.00 | 89 | 1008.2 |
| 20260510065510 | 75 | 192 | 1.0 | 1.0 | 0.00 | 0.00 | 0.00 | 88 | 1008.2 |
| 20260510065006 | 75 | 109 | 2.0 | 3.0 | 0.00 | 0.00 | 0.00 | 88 | 1008.5 |
| 20260510064503 | 75 | 134 | 1.0 | 1.0 | 0.00 | 0.00 | 0.00 | 88 | 1009.1 |
| 20260510063959 | 75 | 89 | 2.0 | 5.0 | 0.00 | 0.00 | 0.00 | 88 | 1009.9 |
| 20260510063456 | 75 | 23 | 2.0 | 3.0 | 0.00 | 0.00 | 0.00 | 88 | 1010.4 |
| 20260510062954 | 75 | 16 | 2.0 | 3.0 | 0.00 | 0.00 | 0.00 | 87 | 1010.4 |
| 20260510062449 | 75 | 118 | 4.0 | 8.0 | 0.00 | 0.00 | 0.00 | 87 | 1010.9 |
| 20260510061944 | 75 | 315 | 3.0 | 3.0 | 0.00 | 0.00 | 0.00 | 87 | 1010.9 |
| 20260510061441 | 76 | 160 | 1.0 | 1.0 | 0.00 | 0.00 | 0.00 | 87 | 1010.6 |
| 20260510060937 | 75 | 38 | 3.0 | 5.0 | 0.00 | 0.00 | 0.00 | 87 | 1010.5 |
| 20260510060434 | 75 | 24 | 5.0 | 7.0 | 0.00 | 0.00 | 0.00 | 87 | 1010.5 |
| 20260510055931 | 75 | 332 | 3.0 | 3.0 | 0.00 | 0.00 | 0.00 | 87 | 1010.1 |
| 20260510055426 | 75 | 351 | 2.0 | 2.0 | 0.00 | 0.00 | 0.00 | 88 | 1009.4 |
| 20260510054925 | 75 | 334 | 0.0 | 0.0 | 0.00 | 0.00 | 0.00 | 87 | 1008.8 |
| 20260510054420 | 75 | 330 | 0.0 | 0.0 | 0.00 | 0.00 | 0.00 | 87 | 1008.1 |
| 20260510053915 | 75 | 63 | 0.0 | 1.0 | 0.00 | 0.00 | 0.00 | 86 | 1008.2 |
| 20260510053411 | 75 | 126 | 0.0 | 1.0 | 0.00 | 0.00 | 0.00 | 85 | 1008.0 |
| 20260510052907 | 75 | 58 | 1.0 | 2.0 | 0.00 | 0.00 | 0.00 | 84 | 1008.1 |
| 20260510052403 | 75 | 10 | 4.0 | 5.0 | 0.00 | 0.00 | 0.00 | 84 | 1007.7 |
| 20260510051900 | 75 | 349 | 0.0 | 0.0 | 0.00 | 0.00 | 0.00 | 83 | 1007.9 |
| 20260510051356 | 76 | 331 | 0.0 | 0.0 | 0.00 | 0.00 | 0.00 | 82 | 1007.7 |
| 20260510050853 | 76 | 247 | 0.0 | 1.0 | 0.00 | 0.00 | 0.00 | 82 | 1007.4 |
| 20260510050350 | 76 | 117 | 1.0 | 2.0 | 0.00 | 0.00 | 0.00 | 81 | 1007.5 |
| 20260510045846 | 76 | 357 | 0.0 | 1.0 | 0.00 | 0.00 | 0.00 | 80 | 1007.6 |
| 20260510045343 | 76 | 165 | 2.0 | 2.0 | 0.00 | 0.00 | 0.00 | 79 | 1007.7 |
| 20260510044840 | 76 | 273 | 0.0 | 0.0 | 0.00 | 0.00 | 0.00 | 78 | 1008.0 |
| 20260510044337 | 76 | 8 | 0.0 | 0.0 | 0.00 | 0.00 | 0.00 | 77 | 1007.5 |
| 20260510043834 | 75 | 117 | 2.0 | 2.0 | 0.00 | 0.00 | 0.00 | 77 | 1007.2 |
| 20260510043330 | 75 | 155 | 0.0 | 0.0 | 0.00 | 0.00 | 0.00 | 77 | 1007.2 |
| 20260510042828 | 75 | 75 | 0.0 | 1.0 | 0.00 | 0.00 | 0.00 | 77 | 1007.2 |
| 20260510042323 | 75 | 91 | 0.0 | 1.0 | 0.00 | 0.00 | 0.00 | 77 | 1007.1 |
| 20260510041820 | 76 | 330 | 0.0 | 0.0 | 0.00 | 0.00 | 0.00 | 77 | 1007.3 |
| 20260510041317 | 75 | 340 | 0.0 | 0.0 | 0.00 | 0.00 | 0.00 | 77 | 1007.4 |
| 20260510040814 | 76 | 89 | 0.0 | 0.0 | 0.00 | 0.00 | 0.00 | 77 | 1007.1 |
| 20260510040311 | 76 | 41 | 0.0 | 1.0 | 0.00 | 0.00 | 0.00 | 76 | 1007.1 |
| 20260510035806 | 76 | 79 | 0.0 | 0.0 | 0.00 | 0.00 | 0.00 | 76 | 1007.3 |
| 20260510035306 | 76 | 69 | 2.0 | 2.0 | 0.00 | 0.00 | 0.00 | 75 | 1007.3 |
| 20260510034758 | 76 | 101 | 0.0 | 1.0 | 0.00 | 0.00 | 0.00 | 75 | 1007.5 |
| 20260510034256 | 76 | 121 | 1.0 | 1.0 | 0.00 | 0.00 | 0.00 | 75 | 1007.5 |
| 20260510033752 | 77 | 358 | 0.0 | 1.0 | 0.00 | 0.00 | 0.00 | 75 | 1007.8 |
| 20260510033250 | 77 | 29 | 0.0 | 0.0 | 0.00 | 0.00 | 0.00 | 75 | 1007.5 |
| 20260510032746 | 77 | 316 | 0.0 | 0.0 | 0.00 | 0.00 | 0.00 | 75 | 1007.6 |
| 20260510032242 | 77 | 30 | 2.0 | 2.0 | 0.00 | 0.00 | 0.00 | 74 | 1007.9 |
| 20260510031738 | 77 | 319 | 0.0 | 0.0 | 0.00 | 0.00 | 0.00 | 74 | 1007.4 |
| 20260510031233 | 77 | 310 | 0.0 | 0.0 | 0.00 | 0.00 | 0.00 | 73 | 1007.7 |
| 20260510030733 | 77 | 107 | 1.0 | 1.0 | 0.00 | 0.00 | 0.00 | 73 | 1007.4 |
| 20260510030231 | 78 | 82 | 1.0 | 2.0 | 0.00 | 0.00 | 0.00 | 73 | 1007.7 |
| 20260510025728 | 78 | 28 | 1.0 | 1.0 | 0.00 | 0.00 | 0.00 | 72 | 1007.5 |
| 20260510025226 | 78 | 103 | 2.0 | 3.0 | 0.00 | 0.00 | 0.00 | 72 | 1007.3 |
| 20260510024722 | 78 | 100 | 0.0 | 1.0 | 0.00 | 0.00 | 0.00 | 72 | 1007.6 |
| 20260510024219 | 78 | 334 | 0.0 | 0.0 | 0.00 | 0.00 | 0.00 | 72 | 1007.5 |
| 20260510023714 | 78 | 334 | 0.0 | 0.0 | 0.00 | 0.00 | 0.00 | 72 | 1007.6 |
| 20260510023212 | 78 | 49 | 0.0 | 0.0 | 0.00 | 0.00 | 0.00 | 72 | 1007.5 |
| 20260510022708 | 78 | 334 | 0.0 | 0.0 | 0.00 | 0.00 | 0.00 | 72 | 1007.3 |
| 20260510022202 | 78 | 74 | 0.0 | 0.0 | 0.00 | 0.00 | 0.00 | 71 | 1007.2 |
| 20260510021658 | 78 | 106 | 1.0 | 1.0 | 0.00 | 0.00 | 0.00 | 71 | 1007.6 |
| 20260510021156 | 78 | 113 | 0.0 | 1.0 | 0.00 | 0.00 | 0.00 | 70 | 1007.5 |
| 20260510020656 | 79 | 349 | 0.0 | 0.0 | 0.00 | 0.00 | 0.00 | 69 | 1007.3 |
| 20260510020151 | 79 | 78 | 0.0 | 0.0 | 0.00 | 0.00 | 0.00 | 69 | 1007.2 |
| 20260510015647 | 79 | 117 | 1.0 | 2.0 | 0.00 | 0.00 | 0.00 | 68 | 1007.2 |
| 20260510015144 | 80 | 66 | 1.0 | 1.0 | 0.00 | 0.00 | 0.00 | 67 | 1007.3 |
| 20260510014644 | 80 | 75 | 1.0 | 1.0 | 0.00 | 0.00 | 0.00 | 67 | 1007.3 |
| 20260510014142 | 80 | 78 | 0.0 | 1.0 | 0.00 | 0.00 | 0.00 | 66 | 1007.3 |
| 20260510013637 | 80 | 119 | 2.0 | 3.0 | 0.00 | 0.00 | 0.00 | 66 | 1007.4 |
| 20260510013132 | 80 | 109 | 1.0 | 2.0 | 0.00 | 0.00 | 0.00 | 65 | 1007.0 |
| 20260510012633 | 80 | 87 | 1.0 | 2.0 | 0.00 | 0.00 | 0.00 | 65 | 1006.8 |
| 20260510012129 | 80 | 101 | 1.0 | 2.0 | 0.00 | 0.00 | 0.00 | 65 | 1007.1 |
| 20260510011629 | 81 | 144 | 1.0 | 2.0 | 0.00 | 0.00 | 0.00 | 65 | 1006.6 |
| 20260510011125 | 81 | 337 | 0.0 | 0.0 | 0.00 | 0.00 | 0.00 | 64 | 1006.5 |
| 20260510010621 | 81 | 325 | 0.0 | 0.0 | 0.00 | 0.00 | 0.00 | 63 | 1006.6 |
| 20260510010118 | 82 | 80 | 2.0 | 2.0 | 0.00 | 0.00 | 0.00 | 62 | 1006.6 |
| 20260510005614 | 82 | 190 | 1.0 | 1.0 | 0.00 | 0.00 | 0.00 | 60 | 1006.3 |
| 20260510005111 | 83 | 13 | 0.0 | 1.0 | 0.00 | 0.00 | 0.00 | 59 | 1006.4 |
| 20260510004609 | 83 | 332 | 0.0 | 0.0 | 0.00 | 0.00 | 0.00 | 58 | 1006.3 |
| 20260510004107 | 84 | 216 | 0.0 | 0.0 | 0.00 | 0.00 | 0.00 | 57 | 1006.3 |
| 20260510003604 | 84 | 315 | 0.0 | 0.0 | 0.00 | 0.00 | 0.00 | 57 | 1006.4 |
| 20260510003059 | 84 | 108 | 1.0 | 1.0 | 0.00 | 0.00 | 0.00 | 57 | 1006.2 |
| 20260510002554 | 84 | 9 | 1.0 | 1.0 | 0.00 | 0.00 | 0.00 | 56 | 1006.2 |
| 20260510002051 | 85 | 31 | 1.0 | 2.0 | 0.00 | 0.00 | 0.00 | 55 | 1006.3 |
| 20260510001549 | 85 | 314 | 1.0 | 1.0 | 0.00 | 0.00 | 0.00 | 53 | 1006.4 |
| 20260510001048 | 85 | 326 | 1.0 | 2.0 | 0.00 | 0.00 | 0.00 | 56 | 1006.4 |
| 20260510000542 | 85 | 125 | 1.0 | 2.0 | 0.00 | 0.00 | 0.00 | 57 | 1006.6 |
| 20260510000039 | 85 | 80 | 1.0 | 1.0 | 0.00 | 0.00 | 0.00 | 57 | 1006.5 |
| 20260509235536 | 86 | 333 | 3.0 | 3.0 | 0.00 | 0.00 | 0.00 | 56 | 1006.5 |
| 20260509235033 | 86 | 308 | 0.0 | 0.0 | 0.00 | 0.00 | 0.00 | 57 | 1006.5 |
| 20260509234529 | 86 | 107 | 2.0 | 2.0 | 0.00 | 0.00 | 0.00 | 56 | 1006.6 |
| 20260509234027 | 86 | 52 | 1.0 | 3.0 | 0.00 | 0.00 | 0.00 | 57 | 1006.6 |
| 20260509233524 | 86 | 82 | 1.0 | 2.0 | 0.00 | 0.00 | 0.00 | 57 | 1006.5 |
| 20260509233021 | 86 | 80 | 1.0 | 1.0 | 0.00 | 0.00 | 0.00 | 56 | 1006.7 |
| 20260509232518 | 86 | 30 | 0.0 | 0.0 | 0.00 | 0.00 | 0.00 | 57 | 1006.4 |
| 20260509232014 | 86 | 280 | 0.0 | 0.0 | 0.00 | 0.00 | 0.00 | 58 | 1006.7 |
| 20260509231511 | 86 | 212 | 1.0 | 1.0 | 0.00 | 0.00 | 0.00 | 58 | 1006.7 |
| 20260509231009 | 87 | 287 | 0.0 | 0.0 | 0.00 | 0.00 | 0.00 | 57 | 1006.7 |
| 20260509230505 | 87 | 139 | 1.0 | 2.0 | 0.00 | 0.00 | 0.00 | 58 | 1006.5 |
| 20260509230002 | 87 | 301 | 0.0 | 1.0 | 0.00 | 0.00 | 0.00 | 58 | 1006.4 |
| 20260509225458 | 87 | 352 | 0.0 | 1.0 | 0.00 | 0.00 | 0.00 | 59 | 1006.5 |
| 20260509224953 | 87 | 280 | 1.0 | 2.0 | 0.00 | 0.00 | 0.00 | 59 | 1006.7 |
| 20260509224449 | 87 | 8 | 1.0 | 1.0 | 0.00 | 0.00 | 0.00 | 60 | 1006.6 |
| 20260509223946 | 87 | 334 | 1.0 | 2.0 | 0.00 | 0.00 | 0.00 | 60 | 1006.4 |
| 20260509223443 | 87 | 49 | 1.0 | 1.0 | 0.00 | 0.00 | 0.00 | 60 | 1006.4 |
| 20260509222940 | 86 | 93 | 1.0 | 2.0 | 0.00 | 0.00 | 0.00 | 60 | 1006.5 |
| 20260509222435 | 86 | 82 | 1.0 | 1.0 | 0.00 | 0.00 | 0.00 | 61 | 1006.2 |
| 20260509221931 | 87 | 104 | 3.0 | 5.0 | 0.00 | 0.00 | 0.00 | 60 | 1006.4 |
| 20260509221429 | 87 | 6 | 1.0 | 2.0 | 0.00 | 0.00 | 0.00 | 60 | 1006.4 |
| 20260509220924 | 87 | 320 | 1.0 | 1.0 | 0.00 | 0.00 | 0.00 | 62 | 1006.3 |
| 20260509220420 | 86 | 152 | 2.0 | 2.0 | 0.00 | 0.00 | 0.00 | 62 | 1006.4 |
| 20260509215917 | 87 | 104 | 2.0 | 3.0 | 0.00 | 0.00 | 0.00 | 61 | 1006.3 |
| 20260509215412 | 87 | 342 | 1.0 | 1.0 | 0.00 | 0.00 | 0.00 | 61 | 1006.3 |
| 20260509214910 | 87 | 16 | 0.0 | 0.0 | 0.00 | 0.00 | 0.00 | 63 | 1006.4 |
| 20260509214407 | 87 | 268 | 0.0 | 0.0 | 0.00 | 0.00 | 0.00 | 62 | 1006.5 |
| 20260509213904 | 87 | 140 | 0.0 | 1.0 | 0.00 | 0.00 | 0.00 | 64 | 1006.6 |
| 20260509213359 | 86 | 180 | 1.0 | 2.0 | 0.00 | 0.00 | 0.00 | 63 | 1006.4 |
| 20260509212857 | 87 | 140 | 1.0 | 1.0 | 0.00 | 0.00 | 0.00 | 61 | 1006.6 |
| 20260509212354 | 87 | 198 | 2.0 | 6.0 | 0.00 | 0.00 | 0.00 | 63 | 1006.8 |
| 20260509211850 | 87 | 190 | 3.0 | 3.0 | 0.00 | 0.00 | 0.00 | 62 | 1006.7 |
| 20260509211346 | 87 | 292 | 1.0 | 1.0 | 0.00 | 0.00 | 0.00 | 62 | 1006.8 |
| 20260509210843 | 87 | 101 | 0.0 | 0.0 | 0.00 | 0.00 | 0.00 | 62 | 1006.7 |
| 20260509210341 | 87 | 217 | 1.0 | 1.0 | 0.00 | 0.00 | 0.00 | 63 | 1006.8 |
| 20260509205840 | 86 | 319 | 1.0 | 1.0 | 0.00 | 0.00 | 0.00 | 65 | 1007.1 |
| 20260509205335 | 86 | 111 | 1.0 | 2.0 | 0.00 | 0.00 | 0.00 | 65 | 1007.2 |
| 20260509204832 | 86 | 81 | 3.0 | 3.0 | 0.00 | 0.00 | 0.00 | 64 | 1007.2 |
| 20260509204328 | 86 | 196 | 1.0 | 1.0 | 0.00 | 0.00 | 0.00 | 64 | 1007.2 |
| 20260509203824 | 88 | 110 | 4.0 | 5.0 | 0.00 | 0.00 | 0.00 | 62 | 1007.2 |
| 20260509203321 | 88 | 121 | 3.0 | 5.0 | 0.00 | 0.00 | 0.00 | 57 | 1007.3 |
| 20260509202817 | 88 | 282 | 0.0 | 0.0 | 0.00 | 0.00 | 0.00 | 60 | 1007.2 |
| 20260509202314 | 88 | 283 | 0.0 | 0.0 | 0.00 | 0.00 | 0.00 | 57 | 1007.2 |
| 20260509201813 | 88 | 92 | 2.0 | 3.0 | 0.00 | 0.00 | 0.00 | 57 | 1007.5 |
| 20260509201310 | 89 | 11 | 1.0 | 2.0 | 0.00 | 0.00 | 0.00 | 56 | 1007.4 |
| 20260509200806 | 87 | 293 | 1.0 | 1.0 | 0.00 | 0.00 | 0.00 | 59 | 1007.3 |
| 20260509200302 | 88 | 316 | 0.0 | 0.0 | 0.00 | 0.00 | 0.00 | 59 | 1007.7 |
| 20260509195758 | 88 | 82 | 0.0 | 0.0 | 0.00 | 0.00 | 0.00 | 58 | 1007.5 |
| 20260509195254 | 87 | 295 | 1.0 | 1.0 | 0.00 | 0.00 | 0.00 | 55 | 1007.4 |
| 20260509194748 | 87 | 16 | 0.0 | 0.0 | 0.00 | 0.00 | 0.00 | 53 | 1007.6 |
| 20260509194244 | 87 | 338 | 2.0 | 3.0 | 0.00 | 0.00 | 0.00 | 57 | 1007.5 |
| 20260509193741 | 86 | 351 | 1.0 | 2.0 | 0.00 | 0.00 | 0.00 | 58 | 1007.9 |
| 20260509193241 | 86 | 55 | 3.0 | 5.0 | 0.00 | 0.00 | 0.00 | 57 | 1007.9 |
| 20260509192737 | 86 | 245 | 2.0 | 2.0 | 0.00 | 0.00 | 0.00 | 59 | 1007.7 |
| 20260509192232 | 86 | 305 | 1.0 | 1.0 | 0.00 | 0.00 | 0.00 | 60 | 1007.6 |
| 20260509191728 | 86 | 280 | 1.0 | 1.0 | 0.00 | 0.00 | 0.00 | 61 | 1008.1 |
| 20260509191225 | 86 | 328 | 1.0 | 2.0 | 0.00 | 0.00 | 0.00 | 61 | 1008.0 |
| 20260509190721 | 86 | 284 | 0.0 | 0.0 | 0.00 | 0.00 | 0.00 | 61 | 1007.9 |
| 20260509190218 | 86 | 25 | 3.0 | 3.0 | 0.00 | 0.00 | 0.00 | 63 | 1008.0 |
| 20260509185716 | 85 | 19 | 0.0 | 0.0 | 0.00 | 0.00 | 0.00 | 66 | 1008.1 |
| 20260509185212 | 84 | 78 | 3.0 | 3.0 | 0.00 | 0.00 | 0.00 | 63 | 1008.0 |
| 20260509184709 | 84 | 275 | 4.0 | 6.0 | 0.00 | 0.00 | 0.00 | 65 | 1008.0 |
| 20260509184207 | 83 | 250 | 2.0 | 2.0 | 0.00 | 0.00 | 0.00 | 69 | 1008.2 |
| 20260509183703 | 84 | 28 | 3.0 | 3.0 | 0.00 | 0.00 | 0.00 | 67 | 1008.3 |
| 20260509183158 | 84 | 42 | 1.0 | 2.0 | 0.00 | 0.00 | 0.00 | 68 | 1008.2 |
| 20260509182653 | 84 | 44 | 0.0 | 1.0 | 0.00 | 0.00 | 0.00 | 67 | 1008.5 |
| 20260509182151 | 84 | 208 | 2.0 | 2.0 | 0.00 | 0.00 | 0.00 | 67 | 1008.5 |
| 20260509181649 | 83 | 313 | 1.0 | 1.0 | 0.00 | 0.00 | 0.00 | 70 | 1008.2 |
| 20260509181147 | 83 | 277 | 5.0 | 6.0 | 0.00 | 0.00 | 0.00 | 69 | 1008.8 |
| 20260509180643 | 83 | 341 | 1.0 | 1.0 | 0.00 | 0.00 | 0.00 | 71 | 1008.3 |
| 20260509180139 | 82 | 57 | 1.0 | 5.0 | 0.00 | 0.00 | 0.00 | 71 | 1008.4 |
| 20260509175635 | 82 | 322 | 2.0 | 3.0 | 0.00 | 0.00 | 0.00 | 70 | 1008.5 |
| 20260509175132 | 82 | 332 | 1.0 | 2.0 | 0.00 | 0.00 | 0.00 | 72 | 1008.6 |
| 20260509174628 | 82 | 326 | 1.0 | 1.0 | 0.00 | 0.00 | 0.00 | 72 | 1008.5 |
| 20260509174123 | 81 | 57 | 1.0 | 2.0 | 0.00 | 0.00 | 0.00 | 73 | 1008.9 |
| 20260509173619 | 81 | 52 | 4.0 | 7.0 | 0.00 | 0.00 | 0.00 | 73 | 1008.9 |
| 20260509173115 | 81 | 271 | 2.0 | 3.0 | 0.00 | 0.00 | 0.00 | 73 | 1008.7 |
| 20260509172612 | 81 | 103 | 3.0 | 5.0 | 0.00 | 0.00 | 0.00 | 73 | 1009.1 |
| 20260509172108 | 80 | 85 | 0.0 | 0.0 | 0.00 | 0.00 | 0.00 | 76 | 1009.1 |
| 20260509171604 | 79 | 301 | 1.0 | 3.0 | 0.00 | 0.00 | 0.00 | 76 | 1009.0 |
| 20260509171100 | 79 | 51 | 2.0 | 3.0 | 0.00 | 0.00 | 0.00 | 77 | 1009.1 |
| 20260509170557 | 79 | 345 | 1.0 | 1.0 | 0.00 | 0.00 | 0.00 | 76 | 1009.2 |
| 20260509170053 | 79 | 324 | 0.0 | 0.0 | 0.00 | 0.00 | 0.00 | 76 | 1008.9 |
| 20260509165551 | 78 | 27 | 0.0 | 2.0 | 0.00 | 0.00 | 0.00 | 77 | 1009.1 |
| 20260509165047 | 78 | 337 | 2.0 | 3.0 | 0.00 | 0.00 | 0.00 | 78 | 1009.1 |
| 20260509164543 | 78 | 295 | 2.0 | 2.0 | 0.00 | 0.00 | 0.00 | 77 | 1008.8 |
| 20260509164044 | 78 | 17 | 1.0 | 1.0 | 0.00 | 0.00 | 0.00 | 77 | 1009.1 |
| 20260509163543 | 78 | 313 | 1.0 | 1.0 | 0.00 | 0.00 | 0.00 | 78 | 1008.9 |
| 20260509163037 | 77 | 356 | 2.0 | 2.0 | 0.00 | 0.00 | 0.00 | 79 | 1009.3 |
| 20260509162535 | 77 | 25 | 1.0 | 1.0 | 0.00 | 0.00 | 0.00 | 79 | 1009.2 |
| 20260509162031 | 77 | 328 | 4.0 | 6.0 | 0.00 | 0.00 | 0.00 | 79 | 1008.9 |
| 20260509161527 | 77 | 305 | 3.0 | 5.0 | 0.00 | 0.00 | 0.00 | 79 | 1009.3 |
| 20260509161022 | 77 | 350 | 1.0 | 1.0 | 0.00 | 0.00 | 0.00 | 80 | 1009.1 |
| 20260509160518 | 76 | 358 | 2.0 | 2.0 | 0.00 | 0.00 | 0.00 | 80 | 1009.2 |
| 20260509160014 | 75 | 314 | 3.0 | 5.0 | 0.00 | 0.00 | 0.00 | 82 | 1009.0 |
| 20260509155510 | 75 | 255 | 2.0 | 2.0 | 0.00 | 0.00 | 0.00 | 82 | 1009.0 |
| 20260509155006 | 75 | 317 | 1.0 | 3.0 | 0.00 | 0.00 | 0.00 | 83 | 1009.0 |
| 20260509154503 | 75 | 0 | 1.0 | 2.0 | 0.00 | 0.00 | 0.00 | 84 | 1009.2 |
| 20260509154000 | 74 | 18 | 3.0 | 6.0 | 0.00 | 0.00 | 0.00 | 85 | 1009.0 |
| 20260509153457 | 73 | 326 | 1.0 | 2.0 | 0.00 | 0.00 | 0.00 | 86 | 1009.1 |
| 20260509152954 | 73 | 337 | 0.0 | 0.0 | 0.00 | 0.00 | 0.00 | 86 | 1009.3 |
| 20260509152449 | 73 | 331 | 1.0 | 1.0 | 0.00 | 0.00 | 0.00 | 87 | 1008.9 |
| 20260509151947 | 73 | 316 | 1.0 | 2.0 | 0.00 | 0.00 | 0.00 | 87 | 1009.0 |
| 20260509151443 | 72 | 285 | 3.0 | 3.0 | 0.00 | 0.00 | 0.00 | 87 | 1009.2 |
| 20260509150941 | 72 | 285 | 1.0 | 1.0 | 0.00 | 0.00 | 0.00 | 88 | 1009.1 |
| 20260509150438 | 72 | 341 | 3.0 | 3.0 | 0.00 | 0.00 | 0.00 | 88 | 1008.9 |
| 20260509145937 | 72 | 286 | 2.0 | 3.0 | 0.00 | 0.00 | 0.00 | 89 | 1009.1 |
| 20260509145437 | 71 | 293 | 1.0 | 2.0 | 0.00 | 0.00 | 0.00 | 89 | 1009.1 |
| 20260509144932 | 71 | 298 | 3.0 | 6.0 | 0.00 | 0.00 | 0.00 | 89 | 1009.0 |
| 20260509144430 | 71 | 270 | 3.0 | 3.0 | 0.00 | 0.00 | 0.00 | 90 | 1009.3 |
| 20260509143927 | 71 | 317 | 2.0 | 2.0 | 0.00 | 0.00 | 0.00 | 90 | 1009.1 |
| 20260509143424 | 71 | 328 | 2.0 | 5.0 | 0.00 | 0.00 | 0.00 | 90 | 1009.3 |
| 20260509142920 | 71 | 281 | 1.0 | 2.0 | 0.00 | 0.00 | 0.00 | 90 | 1009.1 |
| 20260509142417 | 71 | 313 | 4.0 | 6.0 | 0.00 | 0.00 | 0.00 | 90 | 1008.9 |
| 20260509141912 | 71 | 280 | 2.0 | 3.0 | 0.00 | 0.00 | 0.00 | 90 | 1008.8 |
| 20260509141410 | 71 | 15 | 3.0 | 5.0 | 0.00 | 0.00 | 0.00 | 89 | 1008.8 |
| 20260509140906 | 72 | 337 | 2.0 | 2.0 | 0.00 | 0.00 | 0.00 | 89 | 1008.9 |
| 20260509140403 | 72 | 318 | 1.0 | 1.0 | 0.00 | 0.00 | 0.00 | 90 | 1008.9 |
| 20260509135901 | 71 | 333 | 1.0 | 2.0 | 0.00 | 0.00 | 0.00 | 91 | 1008.8 |
| 20260509135358 | 71 | 294 | 4.0 | 5.0 | 0.00 | 0.00 | 0.00 | 92 | 1008.9 |
| 20260509134855 | 71 | 320 | 3.0 | 5.0 | 0.00 | 0.00 | 0.00 | 92 | 1008.7 |
| 20260509134353 | 71 | 246 | 2.0 | 3.0 | 0.00 | 0.00 | 0.00 | 93 | 1008.7 |
| 20260509133849 | 70 | 346 | 3.0 | 5.0 | 0.00 | 0.00 | 0.00 | 93 | 1009.0 |
| 20260509133346 | 70 | 358 | 1.0 | 2.0 | 0.00 | 0.00 | 0.00 | 94 | 1008.7 |
| 20260509132845 | 70 | 274 | 2.0 | 2.0 | 0.00 | 0.00 | 0.00 | 94 | 1008.7 |
| 20260509132343 | 70 | 296 | 3.0 | 3.0 | 0.00 | 0.00 | 0.00 | 94 | 1008.6 |
| 20260509131839 | 70 | 333 | 1.0 | 1.0 | 0.00 | 0.00 | 0.00 | 95 | 1008.5 |
| 20260509131336 | 70 | 297 | 1.0 | 2.0 | 0.00 | 0.00 | 0.00 | 95 | 1008.4 |
| 20260509130833 | 70 | 351 | 3.0 | 5.0 | 0.00 | 0.00 | 0.00 | 95 | 1008.7 |
| 20260509130328 | 70 | 262 | 1.0 | 2.0 | 0.00 | 0.00 | 0.00 | 95 | 1008.8 |
| 20260509125825 | 70 | 274 | 2.0 | 2.0 | 0.00 | 0.00 | 0.00 | 95 | 1008.4 |
| 20260509125322 | 70 | 301 | 2.0 | 3.0 | 0.00 | 0.00 | 0.00 | 96 | 1008.2 |
| 20260509124818 | 70 | 301 | 0.0 | 0.0 | 0.00 | 0.00 | 0.00 | 96 | 1008.3 |
| 20260509124315 | 69 | 252 | 0.0 | 0.0 | 0.00 | 0.00 | 0.00 | 96 | 1008.3 |
| 20260509123813 | 69 | 270 | 0.0 | 0.0 | 0.00 | 0.00 | 0.00 | 97 | 1008.2 |
| 20260509123310 | 69 | 321 | 0.0 | 0.0 | 0.00 | 0.00 | 0.00 | 97 | 1008.2 |
| 20260509122806 | 69 | 313 | 0.0 | 0.0 | 0.00 | 0.00 | 0.00 | 97 | 1008.3 |
| 20260509122306 | 69 | 330 | 0.0 | 0.0 | 0.00 | 0.00 | 0.00 | 97 | 1008.2 |